When you browse on this site, cookies collect data to enhance your experience and personalize the content and advertising you see.
Visit our Privacy Policy to learn more. By continuing to use the site, you agree to this use of cookies and data.
  • In Sweden
  • List of Countries
  • For 7 days
  • Water Temperature
  • Satellite Maps
  • Weather Map
  • Weather Widgets
  • user-avatar
    Login

    Hourly Weather Bogolyubovo

    Today, 22 April, Monday

    Time Temperature Precipitation Wind Pressure Humidity
    00:00 +5°C° 0 mm 2 mps 756 mmHg 53%
    01:00 +5°C° 0 mm 2 mps 756 mmHg 54%
    02:00 +5°C° 0 mm 2 mps 756 mmHg 56%
    03:00 +4°C° 0 mm 2 mps 756 mmHg 57%
    04:00 +4°C° 0 mm 2 mps 756 mmHg 58%
    05:00 +4°C° 0 mm 2 mps 756 mmHg 60%
    06:00 +5°C° 0 mm 2 mps 756 mmHg 58%
    07:00 +5°C° 0 mm 3 mps 756 mmHg 57%
    08:00 +5°C° 0 mm 3 mps 756 mmHg 55%
    09:00 +7°C° 0.1 mm 3 mps 756 mmHg 50%
    10:00 +8°C° 0.1 mm 3 mps 756 mmHg 45%
    11:00 +10°C° 0.1 mm 3 mps 756 mmHg 39%
    12:00 +10°C° 0 mm 3 mps 756 mmHg 38%
    13:00 +10°C° 0 mm 3 mps 755 mmHg 37%
    14:00 +10°C° 0 mm 3 mps 755 mmHg 36%
    15:00 +10°C° 0 mm 3 mps 755 mmHg 36%
    16:00 +10°C° 0 mm 3 mps 755 mmHg 36%
    17:00 +10°C° 0 mm 3 mps 755 mmHg 36%
    18:00 +10°C° 0 mm 2 mps 755 mmHg 39%
    19:00 +9°C° 0 mm 2 mps 755 mmHg 42%
    20:00 +8°C° 0 mm 2 mps 755 mmHg 46%
    21:00 +7°C° 0 mm 2 mps 754 mmHg 48%
    22:00 +7°C° 0 mm 2 mps 754 mmHg 51%
    23:00 +6°C° 0 mm 2 mps 754 mmHg 53%

    Tomorrow, 23 April, Tuesday

    Time Temperature Precipitation Wind Pressure Humidity
    00:00 +5°C° 0 mm 2 mps 754 mmHg 55%
    01:00 +5°C° 0 mm 2 mps 754 mmHg 56%
    02:00 +4°C° 0 mm 2 mps 753 mmHg 58%
    03:00 +3°C° 0 mm 3 mps 753 mmHg 60%
    04:00 +3°C° 0 mm 3 mps 753 mmHg 61%
    05:00 +2°C° 0 mm 3 mps 752 mmHg 63%
    06:00 +3°C° 0 mm 3 mps 752 mmHg 60%
    07:00 +5°C° 0 mm 4 mps 752 mmHg 56%
    08:00 +6°C° 0 mm 4 mps 752 mmHg 53%
    09:00 +7°C° 0 mm 4 mps 751 mmHg 52%
    10:00 +9°C° 0 mm 5 mps 751 mmHg 51%
    11:00 +10°C° 0 mm 5 mps 751 mmHg 50%
    12:00 +10°C° 0.1 mm 5 mps 750 mmHg 54%
    13:00 +10°C° 0.1 mm 5 mps 750 mmHg 58%
    14:00 +10°C° 0.1 mm 5 mps 749 mmHg 61%
    15:00 +12°C° 0.1 mm 5 mps 749 mmHg 59%
    16:00 +12°C° 0.1 mm 4 mps 749 mmHg 56%
    17:00 +13°C° 0.1 mm 4 mps 749 mmHg 53%
    18:00 +12°C° 0 mm 4 mps 749 mmHg 56%
    19:00 +11°C° 0 mm 3 mps 749 mmHg 59%
    20:00 +10°C° 0 mm 3 mps 749 mmHg 62%
    21:00 +10°C° 0 mm 3 mps 749 mmHg 64%
    22:00 +9°C° 0 mm 3 mps 749 mmHg 66%
    23:00 +8°C° 0 mm 4 mps 749 mmHg 68%

    Day after tomorrow, 24 April, Wednesday

    Time Temperature Precipitation Wind Pressure Humidity
    00:00 +8°C° 0 mm 3 mps 748 mmHg 71%
    01:00 +8°C° 0 mm 3 mps 748 mmHg 74%
    02:00 +7°C° 0 mm 3 mps 748 mmHg 76%
    03:00 +5°C° 0 mm 3 mps 748 mmHg 77%
    04:00 +5°C° 0 mm 3 mps 748 mmHg 78%
    05:00 +4°C° 0 mm 3 mps 748 mmHg 80%
    06:00 +6°C° 0 mm 2 mps 749 mmHg 77%
    07:00 +7°C° 0 mm 2 mps 749 mmHg 75%
    08:00 +8°C° 0 mm 2 mps 749 mmHg 73%
    09:00 +9°C° 0 mm 2 mps 749 mmHg 68%
    10:00 +10°C° 0 mm 2 mps 749 mmHg 62%
    11:00 +12°C° 0 mm 2 mps 749 mmHg 57%
    12:00 +13°C° 0.4 mm 2 mps 748 mmHg 55%
    13:00 +13°C° 0.4 mm 2 mps 748 mmHg 53%
    14:00 +14°C° 0.4 mm 2 mps 748 mmHg 50%
    15:00 +13°C° 0.4 mm 2 mps 747 mmHg 52%
    16:00 +13°C° 0.4 mm 1 mps 747 mmHg 54%
    17:00 +13°C° 0.4 mm 1 mps 747 mmHg 56%
    18:00 +12°C° 0.2 mm 1 mps 747 mmHg 61%
    19:00 +10°C° 0.2 mm 0 mps 747 mmHg 66%
    20:00 +10°C° 0.2 mm 0 mps 747 mmHg 71%
    21:00 +9°C° 0.2 mm 0 mps 746 mmHg 73%
    22:00 +10°C° 0.2 mm 1 mps 746 mmHg 75%
    23:00 +9°C° 0.2 mm 1 mps 746 mmHg 77%

    25 April, Thursday

    Time Temperature Precipitation Wind Pressure Humidity
    00:00 +8°C° 0.4 mm 2 mps 746 mmHg 78%
    01:00 +7°C° 0.4 mm 2 mps 746 mmHg 78%
    02:00 +7°C° 0.4 mm 3 mps 745 mmHg 78%
    03:00 +7°C° 0.9 mm 3 mps 745 mmHg 79%
    04:00 +5°C° 0.9 mm 3 mps 745 mmHg 80%
    05:00 +5°C° 0.9 mm 3 mps 745 mmHg 81%
    06:00 +5°C° 0 mm 4 mps 745 mmHg 76%
    07:00 +6°C° 0 mm 4 mps 746 mmHg 71%
    08:00 +6°C° 0 mm 4 mps 746 mmHg 67%
    09:00 +7°C° 0 mm 4 mps 746 mmHg 60%
    10:00 +8°C° 0 mm 4 mps 746 mmHg 53%
    11:00 +10°C° 0 mm 4 mps 746 mmHg 47%
    12:00 +11°C° 0 mm 4 mps 746 mmHg 46%
    13:00 +11°C° 0 mm 4 mps 746 mmHg 44%
    14:00 +11°C° 0 mm 3 mps 746 mmHg 43%
    15:00 +11°C° 0.4 mm 3 mps 746 mmHg 49%
    16:00 +10°C° 0.4 mm 3 mps 746 mmHg 55%
    17:00 +9°C° 0.4 mm 3 mps 746 mmHg 61%
    18:00 +7°C° 1.3 mm 4 mps 746 mmHg 65%
    19:00 +5°C° 1.3 mm 6 mps 747 mmHg 69%
    20:00 +4°C° 1.3 mm 7 mps 747 mmHg 73%
    21:00 +3°C° 0.4 mm 7 mps 748 mmHg 70%
    22:00 +3°C° 0.4 mm 6 mps 748 mmHg 66%
    23:00 +2°C° 0.4 mm 6 mps 748 mmHg 63%

    26 April, Friday

    Time Temperature Precipitation Wind Pressure Humidity
    00:00 +1°C° 0 mm 5 mps 749 mmHg 61%
    01:00 0°C° 0 mm 5 mps 749 mmHg 60%
    02:00 -1°C° 0 mm 4 mps 749 mmHg 58%
    03:00 -1°C° 0 mm 4 mps 750 mmHg 59%
    04:00 -1°C° 0 mm 3 mps 750 mmHg 60%
    05:00 -2°C° 0 mm 3 mps 750 mmHg 61%
    06:00 -1°C° 0 mm 3 mps 750 mmHg 54%
    07:00 +1°C° 0 mm 2 mps 751 mmHg 47%
    08:00 +3°C° 0 mm 2 mps 751 mmHg 40%
    09:00 +4°C° 0 mm 2 mps 750 mmHg 37%
    10:00 +6°C° 0 mm 1 mps 750 mmHg 35%
    11:00 +7°C° 0 mm 1 mps 750 mmHg 32%
    12:00 +6°C° 0 mm 2 mps 750 mmHg 31%
    13:00 +7°C° 0 mm 2 mps 749 mmHg 30%
    14:00 +8°C° 0 mm 3 mps 749 mmHg 28%
    15:00 +8°C° 0.2 mm 3 mps 749 mmHg 37%
    16:00 +6°C° 0.2 mm 4 mps 749 mmHg 46%
    17:00 +6°C° 0.2 mm 4 mps 749 mmHg 54%
    18:00 +3°C° 1 mm 5 mps 749 mmHg 62%
    19:00 +2°C° 1 mm 6 mps 749 mmHg 69%
    20:00 +1°C° 1 mm 6 mps 750 mmHg 77%
    21:00 -1°C° 0.6 mm 6 mps 750 mmHg 78%
    22:00 -2°C° 0.6 mm 6 mps 750 mmHg 80%
    23:00 -3°C° 0.6 mm 6 mps 751 mmHg 81%

    27 April, Saturday

    Time Temperature Precipitation Wind Pressure Humidity
    00:00 -2°C° 0 mm 5 mps 751 mmHg 84%
    01:00 -2°C° 0 mm 5 mps 751 mmHg 88%
    02:00 -2°C° 0 mm 4 mps 752 mmHg 91%
    03:00 -3°C° 0 mm 4 mps 752 mmHg 89%
    04:00 -3°C° 0 mm 4 mps 752 mmHg 88%
    05:00 -3°C° 0 mm 4 mps 753 mmHg 87%
    06:00 -3°C° 0 mm 4 mps 753 mmHg 84%
    07:00 -2°C° 0 mm 4 mps 753 mmHg 82%
    08:00 -2°C° 0 mm 4 mps 753 mmHg 80%
    09:00 0°C° 0 mm 4 mps 753 mmHg 75%
    10:00 +1°C° 0 mm 4 mps 753 mmHg 70%
    11:00 +3°C° 0 mm 4 mps 753 mmHg 65%
    12:00 +5°C° 0 mm 5 mps 753 mmHg 56%
    13:00 +5°C° 0 mm 6 mps 752 mmHg 47%
    14:00 +6°C° 0 mm 7 mps 752 mmHg 37%
    15:00 +6°C° 0 mm 7 mps 751 mmHg 36%
    16:00 +7°C° 0 mm 8 mps 750 mmHg 35%
    17:00 +7°C° 0 mm 8 mps 750 mmHg 34%
    18:00 +7°C° 0 mm 8 mps 749 mmHg 37%
    19:00 +8°C° 0 mm 7 mps 749 mmHg 40%
    20:00 +6°C° 0 mm 7 mps 748 mmHg 43%
    21:00 +6°C° 0 mm 7 mps 748 mmHg 51%
    22:00 +6°C° 0 mm 7 mps 747 mmHg 58%
    23:00 +6°C° 0 mm 7 mps 747 mmHg 66%
    Show more